{"data":{"norad_id":56468,"epoch":"2026-09-20T13:58:45.678432Z","epoch_age_seconds":104881,"freshness":"FRESH","line1":"1 56468U 23064W   26263.58247313  .00000183  00000+0  23118-4 0  9996","line2":"2 56468  70.0006  12.8797 0003217 270.1620  89.9170 14.98331646184449","mean_motion":14.98331646,"eccentricity":0.0003217,"inclination_deg":70.0006,"raan_deg":12.8797,"arg_perigee_deg":270.162,"mean_anomaly_deg":89.917,"bstar":2.3118e-5,"rev_number":18444,"period_min":96.106893546851,"perigee_km":569.81492541433,"apogee_km":574.28667624538,"semimajor_km":6950.1878008299,"source":"CELESTRAK","updated_at":"2026-09-21T09:00:33.445105Z"}}